Regional Weather Roundup
Issued by NWS

Home | Current Version | Previous Version | Text Only | Print | Product List | Glossary Off
Versions: 1 2 3 4 5 6 7 8 9 10 11 12 13 14 15 16 17 18 19 20 21 22 23 24 25 26 27 28 29 30 31 32 33 34 35 36 37 38 39 40 41 42 43 44 45 46 47 48 49 50

000
ASUS43 KMPX 292201
RWRMN
WEATHER ROUNDUP FOR MINNESOTA
NATIONAL WEATHER SERVICE TWIN CITIES/CHANHASSEN MN
500 PM CDT WED JUL 29 2015


NOTE: "FAIR" INDICATES FEW OR NO CLOUDS BELOW 12,000 FEET WITH NO
SIGNIFICANT WEATHER AND/OR OBSTRUCTIONS TO VISIBILITY. N/A MEANS
CURRENT SKY AND/OR WEATHER CONDITIONS ARE NOT AVAILABLE.

MNZ060>063-068>070-292300-
   Twin Cities Metro

CITY           SKY/WX    TMP DP  RH WIND       PRES   REMARKS
TWIN CITIES    MOSUNNY   82  52  35 W23G37    29.93S
ST PAUL        PTSUNNY   81  53  37 W26G36    29.93S
CRYSTAL        MOSUNNY   83  54  36 W18G31    29.92S
BLAINE         MOSUNNY   82  55  39 W21G33    29.93R
LAKEVILLE      SUNNY     79  54  41 W16G29    29.96S
EDEN PRAIRIE   SUNNY     83  53  35 W18G28    29.94S
SOUTH ST PAUL  MOSUNNY   82  50  32 W17G35    29.93S
LAKE ELMO      PTSUNNY   79  55  44 W24G36    29.94S
$$
MNZ001>005-007-008-013>017-022>024-027-028-292300-
   Northwest Minnesota

CITY           SKY/WX    TMP DP  RH WIND       PRES   REMARKS
BEMIDJI        MOSUNNY   76  53  44 W17G40    29.83R
HALLOCK        MOSUNNY   81  46  30 W25G32    29.78R
ROSEAU         SUNNY     75  57  53 W22G32    29.75R
WARROAD        MOSUNNY   75  57  53 W22G37    29.73R
THIEF RVR FALL MOSUNNY  N/A N/A N/A W20G36    29.81S
CROOKSTON      MOSUNNY   81  54  39 NW26G33   29.84S
FOSSTON        MOSUNNY   75  54  46 W28G39    29.86R
DETROIT LAKES  SUNNY     77  52  41 W28G37    29.93R
MOORHEAD       MOSUNNY   79  55  44 W25G31    29.92R
PARK RAPIDS    MOSUNNY   77  50  38 W29G36    29.88R
MAHNOMEN       FAIR      77  53  43 W23G39    29.87S
$$
MNZ006-009>011-018-025>026-292300-
   North Central Minnesota

CITY           SKY/WX    TMP DP  RH WIND       PRES   REMARKS
BAUDETTE       PTSUNNY   75  55  49 W20G35    29.72R
FLAG ISLAND    CLOUDY    72  55  56 W22G28    29.67R
INTL FALLS     CLOUDY    68  58  70 W9        29.71R
WASKISH        MOSUNNY   75  55  50 W23G30    29.77R
BIG FORK       SUNNY     75  52  43 W16G29    29.78S
LONGVILLE      MOSUNNY   77  52  41 W17G29    29.85R
GRAND RAPIDS   MOSUNNY   75  54  46 W13G28    29.82R
CRANE LAKE     CLOUDY    66  57  72 SW8G16    29.74R
ORR            PTSUNNY   72  55  56 CALM      29.72F
COOK           MOSUNNY   70  61  73 W7        29.76F
WALKER         MOCLDY    76  54  46 W17G29    29.84R
$$
MNZ012-019>021-037-292300-
   Northeast Minnesota

CITY           SKY/WX    TMP DP  RH WIND       PRES   REMARKS
DULUTH         PTSUNNY   73  54  51 W14       29.80S
ELY            CLOUDY    66  55  68 W13G23    29.75S
HIBBING        LGT RAIN  75  53  46 W15G26    29.79R
EVELETH        MOSUNNY   73  54  49 W15G26    29.79S
DULUTH HARBOR  CLOUDY    79  57  47 W16       29.78F
TWO HARBORS    CLOUDY    73  61  64 W7        29.76S
SILVER BAY     CLOUDY    72  57  60 SW8G17    29.76R
GRAND MARAIS     N/A     60  53  77 W9G20     29.70R
G MARAIS ARPRT   N/A     64  54  68 SW13G26   29.74R
$$
MNZ029>031-032-039>041-046>048-054>057-064-292300-
   West Central Minnesota

CITY           SKY/WX    TMP DP  RH WIND       PRES   REMARKS
FERGUS FALLS   SUNNY     81  54  39 NW24G30   29.92S
WHEATON        SUNNY     79  54  41 W24G31    29.98S
MORRIS         SUNNY     81  54  39 NW21G30   29.96S
ALEXANDRIA     MOSUNNY   80  54  40 W26G39    29.96S
ELBOW LAKE     FAIR      77  54  43 NW18G24   29.96R
WADENA         MOSUNNY   79  54  41 W21G28    29.91R
GLENWOOD       SUNNY     79  54  41 W26       29.97S
APPLETON       SUNNY     82  48  30 W20G30    29.98S
BENSON         MOSUNNY   82  48  30 NW24G33   29.97F
ORTONVILLE     SUNNY     81  46  30 NW20G29   29.99S
MADISON        SUNNY     82  46  28 NW20G25   30.00F
WILLMAR        FAIR      81  54  39 W21G29    29.99S
$$
MNZ033>034-036-042>043-049>051-058-059-292300-
   Central Minnesota

CITY           SKY/WX    TMP DP  RH WIND       PRES   REMARKS
ST CLOUD       MOSUNNY   80  52  37 W21G32    29.92S
SAUK CENTRE    FAIR      78  54  43 W20G35    29.94F
PAYNESVILLE    PTSUNNY   78  54  42 SW18G30   29.97S
AITKIN         MOSUNNY   79  54  41 W13G24    29.84S
PINE RIVER     MOSUNNY   79  54  41 W17G26    29.90R
BRAINERD       MOSUNNY   79  52  38 W15G30    29.88R
STAPLES        MOSUNNY   77  50  38 W22G32    29.90S
LONG PRAIRIE   FAIR      77  50  38 W18G35    29.94S
LITTLE FALLS   SUNNY     79  46  31 W21G30    29.91S
LITCHFIELD     MOSUNNY   81  54  39 W18G26    29.97F
BUFFALO        MOSUNNY   80  53  39 W15G25    29.96S
MAPLE LAKE     MOSUNNY   81  57  44 W14G24    29.95S
$$
MNZ037-044-045-052-053-292300-
   East Central Minnesota

CITY           SKY/WX    TMP DP  RH WIND       PRES   REMARKS
PRINCETON      SUNNY     81  55  41 W14G26    29.92S
MORA           MOSUNNY   77  50  38 W15G30    29.90S
CAMBRIDGE      MOSUNNY   82  61  47 W17G28    29.89S
RUSH CITY      MOSUNNY   78  55  44 W14G31    29.89S
MOOSE LAKE     MOSUNNY   77  54  44 W14G21    29.82F
HINCKLEY       FAIR      79  55  44 W20G28    29.87S
CLOQUET        MOSUNNY   79  48  34 W21G28    29.81F
MCGREGOR       MOSUNNY   79  52  38 W13G25    29.85S
$$
MNZ071>073-080-081-089-090-097-098-292300-
   Southwest Minnesota

CITY           SKY/WX    TMP DP  RH WIND       PRES   REMARKS
MONTEVIDEO     SUNNY     84  54  34 NW18G26   30.01S
GRANITE FALLS  SUNNY     81  54  39 W15G24    30.02S
CANBY          SUNNY     82  48  29 NW26G37   30.03S
MARSHALL       SUNNY     82  48  30 NW29G37   30.04S
REDWOOD FALLS  SUNNY     83  53  35 W18G29    30.00F
OLIVIA         SUNNY     77  50  38 W20G30    29.99S
PIPESTONE      SUNNY     81  48  32 NW13G23   30.08F
WINDOM         SUNNY     82  50  32 W20G31    30.05S
WORTHINGTON    SUNNY     81  54  39 W18       30.08S
JACKSON        SUNNY     81  54  39 W18G30    30.07F
TRACY          SUNNY     81  52  36 W14G26    30.05S
SLAYTON        SUNNY     81  48  31 W24G30    30.08S
$$
MNZ065>067-074>077-082>085-091>093-292300-
   South Central Minnesota

CITY           SKY/WX    TMP DP  RH WIND       PRES   REMARKS
MANKATO        SUNNY     81  52  36 W21G33    30.00F
NEW ULM        SUNNY     81  52  36 W21G29    30.00F
ST JAMES       SUNNY     84  55  37 W18G30    30.04S
FAIRMONT       SUNNY     82  54  36 W22       30.04S
GLENCOE        SUNNY     81  55  39 W20G30    29.98R
FARIBAULT      SUNNY     81  55  41 W17G25    29.99F
OWATONNA       SUNNY     81  52  36 W21G33    30.01S
WASECA         SUNNY     77  52  41 W20G29    30.03S
ALBERT LEA     SUNNY     81  54  39 W12G24    30.03S
$$
MNZ078>079-086>088-094>096-292300-
   Southeast Minnesota

CITY           SKY/WX    TMP DP  RH WIND       PRES   REMARKS
ROCHESTER      SUNNY     78  55  44 W22G31    30.01S
RED WING       SUNNY     84  52  32 W14G29    29.93S
STANTON        SUNNY     81  55  40 W18G30    29.96F
DODGE CENTER   SUNNY     79  52  38 W24G33    30.01S
WINONA         SUNNY     81  52  36 W15G22    29.96S
AUSTIN         SUNNY     81  52  36 W21G28    30.02S
PRESTON        SUNNY     78  54  43 W17G29    30.02S
$$
ABBREVIATIONS USED IN REMARKS
   TC - TEMPERATURES IN CELSIUS
  WCI - WIND CHILL INDEX
   HX - HEAT INDEX
  VSB - VISIBILITY
$$



USA.gov is the U.S. government's official web portal to all federal, state and local government web resources and services.